Wind_Speed
19 21 23 25 29 32 35 36 36 37 38 39 38 39 41 46 47 51 50 61 53 56 54 53 49 50 49 47 48 49 55 53 48 43 40 47 48 39 39 42 41 41 39 38 33
18 19 21 23 24 26 29 31 32 35 38 41 42 43 43 44 42 45 56 57 66 61 58 59 57 53 52 49 53 57 60 57 48 46 46 47 45 39 37 42 45 44 44 39 33
21 22 24 25 27 28 29 30 32 34 36 39 40 42 44 45 45 48 49 55 61 70 65 62 64 66 63 59 61 62 64 56 52 51 50 51 52 47 49 46 36 42 44 44 41
23 23 24 26 27 29 31 32 33 34 37 39 40 41 43 44 46 50 53 56 58 60 72 73 68 67 70 66 65 65 64 62 56 53 55 54 52 52 53 52 39 41 46 50 47
23 24 26 26 28 29 30 31 33 36 38 40 43 44 44 45 45 53 53 56 58 59 61 74 74 70 67 67 66 66 64 65 64 60 61 62 59 59 58 52 48 41 44 44 41
24 25 25 25 27 28 29 31 34 37 39 41 43 44 47 47 54 52 55 55 57 59 62 66 68 73 79 74 69 65 66 65 66 67 63 61 57 54 53 49 51 45 47 44 40
19 21 23 26 29 31 34 37 39 41 45 47 48 47 45 52 55 57 59 58 60 59 59 61 66 68 72 82 79 74 74 76 72 69 69 65 63 55 52 51 45 41 46 42 40
23 26 28 31 33 36 38 41 42 44 47 49 51 53 53 59 57 60 61 61 61 61 63 64 64 67 68 71 74 74 74 74 69 73 72 70 59 52 49 49 43 41 42 44 48
27 28 31 33 35 38 41 44 47 51 52 54 57 58 59 65 66 65 64 65 66 65 63 66 68 65 65 68 71 72 69 66 64 60 63 61 54 48 42 46 47 47 48 46 48
28 30 33 36 39 40 43 46 51 55 57 62 66 68 71 74 77 75 72 71 69 71 70 69 67 68 66 65 68 68 68 68 68 62 59 58 55 50 45 44 48 49 46 46 46
30 34 36 38 39 41 44 49 52 58 65 69 76 80 81 82 82 78 82 76 73 76 74 72 71 64 60 62 62 61 62 63 60 59 57 59 59 51 54 47 44 41 42 41 40
33 35 37 37 39 42 46 50 57 60 66 73 69 57 47 40 51 54 71 77 80 78 79 78 71 65 63 66 65 64 61 57 55 53 51 49 55 53 49 45 41 39 38 39 40
33 33 35 37 39 44 48 52 56 59 61 56 41 30 27 28 28 21 38 48 61 75 77 77 72 69 68 67 64 63 61 57 56 53 52 51 57 51 45 43 40 40 40 37 35
30 32 34 37 40 44 49 52 56 57 50 40 35 31 21 21 17 19 37 36 39 47 55 65 64 69 70 68 66 61 60 59 59 55 53 49 54 46 39 38 38 37 34 31 26
32 35 36 36 41 45 49 53 55 50 40 32 27 24 24 17 13 10 20 31 32 36 41 52 59 65 66 63 64 58 61 60 60 57 54 50 51 28 35 34 29 26 27 27 28
35 36 37 37 40 45 49 50 49 40 33 28 21 18 17 20 21 23 13 21 15 35 41 45 46 53 60 61 62 63 64 58 58 59 59 46 47 22 28 28 26 27 30 29 20
36 38 37 37 40 45 47 44 38 33 32 22 25 22 14 12 17 20 20 12 14 13 27 41 39 48 52 56 57 61 62 60 59 60 50 49 49 24 12 26 26 28 25 20 21
37 38 36 37 39 42 43 42 33 31 28 18 19 18 20 14 12 15 21 19 11 11 17 16 27 37 44 52 50 55 58 59 61 56 49 50 46 35 16 23 22 26 20 19 18
37 37 35 36 37 40 41 41 32 28 27 18 16 17 17 17 14 14 13 15 16 14 12 12 19 27 35 45 52 53 55 50 53 56 55 50 43 40 26 24 25 22 19 16 20
37 36 33 34 35 38 38 36 29 25 25 24 22 20 15 13 11 13 10 14 18 12 13 16 17 21 28 39 46 51 53 52 55 54 54 51 48 40 31 30 22 21 15 17 17
39 38 34 31 32 36 36 32 28 24 24 22 24 23 15 12 13 8 9 13 12 12 12 14 20 27 26 31 40 46 52 56 53 53 53 51 51 41 28 33 33 26 20 21 20
42 42 37 33 31 35 36 37 31 20 22 22 21 19 16 12 9 11 10 11 12 15 17 21 18 19 23 31 34 43 49 56 57 55 53 52 49 34 35 34 22 22 20 21 17
39 42 40 37 33 32 32 32 33 22 21 18 20 18 17 19 18 11 12 13 12 14 16 22 22 15 16 28 37 44 49 57 58 57 55 54 38 37 34 31 29 24 20 16 12
39 41 41 36 34 36 32 33 27 23 19 17 18 20 16 15 20 16 13 18 19 21 14 17 16 14 14 24 35 46 49 56 60 56 51 51 41 43 37 34 29 29 25 13 8
39 40 42 37 32 33 32 33 34 24 16 18 14 21 18 17 16 18 21 19 17 25 17 21 18 18 13 19 31 39 51 57 61 57 54 51 41 40 43 38 34 32 25 14 9
40 38 39 38 32 31 30 30 33 26 23 19 19 15 18 18 20 15 17 16 14 18 23 21 18 19 10 16 25 39 49 57 62 60 56 49 47 46 45 44 38 34 24 19 11
39 39 38 38 32 30 30 32 33 33 26 22 20 16 17 20 15 16 16 10 7 15 18 20 16 17 13 14 18 28 43 55 61 63 58 49 54 52 50 45 41 37 27 21 14
Wind_Direction
267 265 265 264 263 262 260 256 252 252 256 256 256 253 250 247 246 245 241 238 233 234 233 227 231 231 233 234 236 239 238 237 238 233 237 237 239 242 255 255 264 261 258 253 251
276 275 275 273 269 266 267 269 267 265 259 256 253 250 250 251 251 249 243 240 237 235 232 238 228 231 229 233 236 237 240 240 241 241 247 255 252 242 238 253 250 256 256 249 254
284 281 279 278 276 273 270 266 266 266 265 264 262 259 254 248 245 244 246 242 243 240 236 234 238 239 231 236 239 239 242 249 249 251 254 255 257 268 257 259 261 261 262 246 252
286 284 283 280 279 278 278 275 272 268 266 266 264 263 260 258 256 248 244 242 244 244 237 239 239 239 243 241 243 246 244 247 251 253 256 259 262 261 272 273 266 259 245 248 254
286 285 284 284 283 282 279 276 273 271 270 268 266 264 261 260 255 256 249 244 244 244 243 239 236 241 241 245 247 249 245 252 253 252 256 258 259 260 261 273 268 257 250 249 255
290 289 290 291 291 289 286 284 282 280 275 270 265 263 262 261 258 252 254 251 246 243 243 241 244 244 240 241 244 248 251 252 255 258 255 257 260 260 261 270 269 268 256 254 258
297 294 295 294 292 291 290 288 287 286 283 279 275 270 265 259 258 259 254 251 248 246 244 244 245 245 242 242 245 246 249 253 252 253 256 258 264 262 271 266 261 261 262 259 265
307 305 303 302 301 299 297 295 291 287 285 283 280 276 271 264 260 254 254 254 251 247 244 243 242 245 246 246 246 246 248 251 254 256 260 263 258 263 264 264 262 255 251 253 248
309 308 306 304 301 298 296 296 292 289 287 284 277 271 265 262 260 257 252 249 250 249 245 243 242 242 243 244 246 246 247 251 251 250 254 256 254 262 258 255 255 253 255 256 253
309 307 304 304 304 303 302 301 299 297 294 293 288 282 276 271 265 260 254 250 246 245 244 242 241 240 241 242 246 251 252 252 252 251 253 255 256 261 257 251 247 249 252 255 258
306 306 307 307 305 305 304 303 303 304 304 300 296 290 282 279 269 258 254 246 244 243 242 242 240 241 242 244 243 245 247 249 251 252 251 254 255 254 254 251 250 251 254 259 260
310 312 311 310 307 307 306 307 308 310 312 312 310 306 301 292 271 253 247 245 240 238 237 238 240 239 238 237 238 239 243 245 248 251 252 246 251 249 253 256 257 259 257 256 255
318 319 316 315 313 312 312 315 318 321 321 316 303 295 308 305 306 261 252 240 236 234 232 235 237 234 235 235 235 236 239 241 245 247 249 248 245 249 247 252 255 257 258 254 250
323 323 322 319 318 317 320 323 325 326 319 310 294 295 288 311 318 272 220 234 229 228 229 229 231 232 232 233 234 233 236 237 241 243 246 251 251 243 250 251 251 254 260 255 248
329 327 325 322 322 323 326 329 330 328 318 315 300 290 307 320 328 296 237 234 241 216 222 220 222 224 228 230 233 232 234 234 236 239 242 243 252 240 234 241 248 255 252 250 247
331 329 326 327 328 328 333 335 334 326 320 322 316 300 296 306 299 304 257 245 255 235 220 211 221 220 223 224 226 226 230 231 234 236 237 238 247 226 232 236 241 240 240 241 246
334 331 329 330 330 332 336 338 330 333 329 320 316 312 276 268 280 289 287 225 249 225 227 223 220 219 217 223 224 224 226 227 231 234 232 233 236 231 233 230 222 228 236 245 248
336 335 332 332 332 336 338 337 337 339 336 318 322 316 323 257 261 292 287 271 238 207 214 215 221 222 216 217 220 222 224 226 229 231 229 232 232 233 217 207 226 228 230 240 244
338 338 335 333 334 338 338 344 341 341 346 326 319 310 313 307 260 249 277 261 267 240 239 205 203 207 214 217 216 215 220 220 225 228 227 226 228 229 223 237 242 240 235 233 248
343 343 340 335 336 338 342 348 337 337 343 339 331 321 312 311 293 266 264 264 261 285 270 260 233 214 218 215 217 214 217 217 219 220 223 224 227 224 214 228 232 224 216 228 232
348 347 345 338 338 339 345 348 343 331 338 338 332 331 309 300 299 264 254 264 269 283 271 271 253 229 226 220 215 213 214 217 217 218 219 222 223 220 217 232 230 239 216 223 230
349 347 348 343 343 343 347 351 348 335 325 332 324 323 322 301 300 285 263 273 270 273 273 269 270 238 223 224 218 218 211 215 213 215 215 220 217 217 226 223 212 191 219 238 250
351 350 351 345 344 349 347 349 343 333 322 324 324 322 314 316 320 291 261 269 248 242 251 256 264 253 231 224 225 222 210 212 212 211 210 215 198 196 184 190 190 204 205 215 222
352 351 352 348 345 347 351 350 345 329 327 323 332 320 314 318 305 313 288 266 262 247 263 273 243 254 229 225 226 221 214 210 211 208 209 211 195 194 181 192 198 190 184 195 233
350 352 352 353 343 344 350 357 355 341 328 342 323 327 319 318 324 303 301 283 259 251 253 259 242 244 263 225 232 223 214 208 207 204 206 208 192 190 195 190 193 189 190 181 216
346 350 350 355 345 344 345 349 358 350 345 344 358 341 339 342 340 338 311 287 257 237 250 248 231 254 274 236 236 233 216 208 204 200 202 200 182 175 183 192 190 190 184 173 203
344 348 348 352 344 344 347 342 349 0 352 356 351 354 347 346 356 353 357 339 259 227 219 220 223 249 234 243 234 232 223 209 203 200 197 189 172 175 183 190 193 187 176 176 205
Height
5778 5778 5778 5778 5777 5777 5776 5776 5776 5777 5778 5779 5779 5781 5783 5785 5788 5791 5798 5801 5798 5801 5804 5810 5812 5812 5814 5819 5821 5822 5821 5829 5837 5843 5844 5835 5841 5846 5844 5845 5849 5848 5847 5845 5845
5772 5771 5771 5771 5771 5772 5771 5770 5770 5770 5770 5769 5770 5772 5774 5776 5778 5781 5785 5785 5788 5789 5795 5798 5801 5799 5804 5809 5810 5811 5811 5820 5833 5834 5832 5828 5835 5842 5837 5836 5838 5841 5842 5840 5840
5766 5766 5765 5764 5764 5763 5764 5764 5764 5763 5763 5762 5762 5763 5764 5766 5769 5768 5769 5772 5775 5776 5785 5786 5788 5787 5791 5795 5799 5801 5803 5815 5822 5824 5824 5823 5823 5825 5830 5831 5839 5838 5837 5837 5835
5761 5760 5759 5758 5757 5756 5755 5754 5754 5754 5753 5752 5752 5753 5754 5756 5758 5755 5756 5758 5760 5763 5767 5775 5776 5777 5781 5786 5793 5791 5797 5802 5810 5813 5814 5816 5819 5819 5817 5824 5831 5832 5831 5831 5830
5756 5754 5752 5751 5749 5748 5747 5746 5744 5743 5741 5741 5740 5741 5742 5744 5746 5737 5743 5747 5749 5751 5753 5757 5761 5767 5770 5777 5779 5782 5792 5788 5794 5800 5803 5805 5809 5815 5816 5818 5822 5826 5825 5825 5824
5749 5747 5745 5744 5742 5740 5739 5737 5735 5733 5731 5730 5729 5729 5730 5733 5722 5727 5728 5732 5734 5738 5741 5744 5748 5752 5755 5761 5766 5776 5776 5779 5781 5784 5792 5793 5799 5803 5811 5817 5811 5814 5815 5815 5816
5746 5743 5741 5738 5736 5734 5731 5728 5725 5721 5718 5717 5717 5716 5719 5714 5712 5712 5711 5716 5719 5723 5727 5730 5732 5733 5741 5748 5754 5760 5759 5761 5770 5774 5776 5784 5785 5792 5800 5801 5804 5805 5804 5806 5808
5740 5737 5735 5731 5728 5724 5721 5717 5713 5708 5705 5703 5703 5703 5704 5697 5698 5696 5699 5700 5702 5707 5713 5714 5716 5720 5727 5733 5738 5744 5747 5751 5762 5766 5770 5771 5769 5788 5790 5789 5793 5796 5796 5797 5800
5732 5729 5726 5723 5719 5715 5711 5706 5700 5694 5691 5689 5687 5685 5682 5677 5678 5678 5680 5683 5685 5689 5694 5694 5699 5707 5713 5719 5723 5728 5736 5743 5748 5758 5755 5758 5760 5773 5779 5778 5781 5782 5782 5786 5788
5726 5722 5717 5713 5708 5703 5698 5692 5685 5677 5674 5668 5663 5664 5658 5651 5653 5656 5660 5663 5667 5668 5673 5678 5684 5691 5700 5706 5712 5723 5731 5731 5732 5743 5745 5747 5750 5759 5765 5765 5764 5767 5772 5776 5779
5719 5714 5709 5703 5698 5693 5687 5680 5675 5667 5654 5645 5636 5627 5622 5618 5622 5627 5630 5640 5646 5649 5656 5659 5665 5682 5695 5697 5701 5704 5710 5712 5720 5725 5733 5739 5738 5749 5746 5752 5756 5761 5764 5767 5770
5713 5707 5702 5696 5690 5684 5677 5668 5658 5649 5639 5625 5614 5603 5595 5589 5589 5595 5596 5611 5618 5626 5632 5639 5655 5671 5675 5676 5684 5691 5696 5704 5710 5714 5719 5730 5724 5733 5739 5745 5750 5753 5756 5757 5759
5706 5701 5695 5689 5682 5674 5666 5657 5646 5635 5625 5612 5607 5601 5594 5587 5581 5582 5578 5585 5594 5604 5612 5624 5644 5648 5651 5659 5670 5678 5686 5695 5699 5704 5710 5717 5712 5724 5734 5737 5742 5745 5746 5747 5750
5700 5694 5688 5681 5675 5665 5657 5647 5636 5624 5615 5608 5601 5596 5592 5585 5577 5573 5566 5571 5579 5588 5596 5607 5624 5630 5634 5647 5654 5666 5675 5683 5686 5693 5701 5707 5702 5718 5728 5729 5732 5737 5739 5741 5744
5693 5686 5680 5672 5666 5657 5648 5638 5626 5615 5607 5599 5594 5590 5587 5584 5578 5574 5571 5575 5578 5579 5582 5599 5604 5610 5622 5637 5642 5658 5661 5670 5677 5686 5691 5699 5699 5717 5719 5722 5730 5732 5732 5733 5736
5686 5680 5673 5665 5658 5649 5639 5629 5618 5610 5600 5595 5588 5586 5585 5580 5575 5572 5572 5571 5572 5572 5574 5584 5588 5594 5608 5616 5628 5643 5647 5659 5666 5674 5677 5697 5698 5702 5710 5719 5722 5723 5722 5725 5729
5682 5675 5665 5658 5651 5642 5633 5623 5615 5604 5596 5590 5585 5580 5578 5577 5574 5570 5569 5570 5571 5571 5572 5574 5578 5589 5597 5608 5619 5628 5637 5647 5655 5659 5677 5687 5691 5699 5706 5710 5713 5714 5718 5722 5725
5678 5670 5660 5652 5645 5637 5628 5621 5609 5600 5592 5587 5581 5577 5573 5573 5572 5570 5569 5568 5571 5570 5572 5574 5578 5582 5588 5598 5609 5617 5629 5639 5646 5658 5671 5677 5684 5689 5704 5705 5707 5711 5715 5719 5721
5672 5664 5655 5647 5639 5632 5624 5614 5604 5597 5589 5584 5580 5575 5572 5568 5568 5568 5568 5567 5567 5568 5571 5573 5575 5578 5585 5589 5598 5608 5618 5632 5637 5648 5659 5669 5678 5686 5699 5702 5705 5708 5712 5714 5716
5669 5661 5652 5643 5635 5627 5620 5609 5600 5593 5587 5580 5575 5572 5569 5566 5564 5564 5564 5564 5565 5566 5568 5570 5574 5577 5578 5584 5591 5601 5608 5616 5626 5637 5650 5662 5669 5678 5694 5699 5699 5703 5708 5710 5711
5665 5656 5649 5641 5633 5624 5615 5606 5597 5589 5584 5579 5574 5569 5566 5564 5562 5562 5563 5563 5563 5564 5564 5566 5570 5574 5575 5579 5585 5592 5597 5607 5619 5632 5644 5655 5661 5676 5689 5686 5691 5700 5704 5705 5707
5661 5653 5645 5638 5630 5621 5611 5602 5595 5588 5582 5577 5573 5569 5564 5562 5561 5559 5560 5561 5562 5561 5561 5562 5565 5567 5572 5575 5577 5579 5589 5598 5609 5626 5637 5647 5657 5675 5675 5679 5688 5696 5699 5701 5702
5659 5648 5641 5632 5626 5619 5609 5600 5591 5585 5579 5575 5571 5567 5564 5561 5558 5557 5557 5557 5558 5557 5558 5560 5561 5561 5565 5567 5569 5572 5582 5590 5602 5613 5627 5639 5658 5664 5668 5675 5682 5689 5695 5698 5699
5657 5647 5637 5629 5621 5613 5607 5599 5591 5582 5577 5573 5569 5565 5562 5560 5556 5554 5554 5554 5554 5554 5555 5555 5556 5557 5559 5559 5560 5566 5573 5582 5592 5607 5622 5632 5651 5658 5662 5670 5678 5684 5689 5693 5695
5654 5645 5635 5627 5619 5610 5604 5596 5587 5581 5576 5571 5568 5562 5559 5558 5555 5551 5549 5548 5547 5548 5550 5551 5551 5552 5552 5553 5554 5557 5563 5573 5585 5601 5612 5625 5644 5651 5659 5666 5673 5680 5684 5688 5693
5652 5644 5635 5625 5617 5610 5602 5595 5588 5580 5573 5569 5565 5561 5559 5556 5552 5547 5543 5540 5540 5543 5545 5546 5548 5547 5548 5548 5549 5551 5558 5566 5578 5592 5604 5618 5635 5644 5651 5660 5670 5674 5679 5683 5690
5650 5642 5633 5625 5616 5609 5601 5592 5586 5579 5573 5567 5563 5561 5558 5554 5549 5545 5541 5538 5537 5537 5538 5539 5542 5543 5544 5543 5543 5545 5553 5561 5573 5584 5597 5615 5630 5636 5646 5654 5663 5668 5672 5680 5687